Time,TemperatureF,DewpointF,PressureIn,WindDirection,WindDirectionDegrees,WindSpeedMPH,WindSpeedGustMPH,Humidity,HourlyPrecipIn,Conditions,Clouds,dailyrainin,SoftwareType,DateUTC
2013-08-05 00:02:00,56.3,28.3,29.99,SSW,205,0.0,0.0,34,0.00,,---,0.00,VWS V14.01,2013-08-05 06:02:00,
2013-08-05 00:07:00,56.1,28.1,29.99,SSW,205,0.0,0.0,34,0.00,,---,0.00,VWS V14.01,2013-08-05 06:07:00,
2013-08-05 00:12:00,56.1,28.9,29.99,South,184,0.0,0.0,35,0.00,,---,0.00,VWS V14.01,2013-08-05 06:12:00,
2013-08-05 00:17:00,55.8,28.5,29.99,South,184,0.0,0.0,35,0.00,,---,0.00,VWS V14.01,2013-08-05 06:17:00,
2013-08-05 00:22:00,55.8,28.5,29.99,South,184,0.0,0.0,35,0.00,,---,0.00,VWS V14.01,2013-08-05 06:22:00,
2013-08-05 00:27:00,55.8,28.5,29.99,South,184,0.0,0.0,35,0.00,,---,0.00,VWS V14.01,2013-08-05 06:27:00,
2013-08-05 00:32:00,55.6,28.4,29.99,South,184,0.0,0.0,35,0.00,,---,0.00,VWS V14.01,2013-08-05 06:32:00,
2013-08-05 00:37:00,55.8,28.5,29.99,South,184,0.0,0.0,35,0.00,,---,0.00,VWS V14.01,2013-08-05 06:37:00,
2013-08-05 00:42:00,55.8,28.5,29.99,South,184,0.0,0.0,35,0.00,,---,0.04,VWS V14.01,2013-08-05 06:42:00,
2013-08-05 00:47:00,55.8,28.5,29.99,West,261,0.0,0.0,35,0.00,,---,0.00,VWS V14.01,2013-08-05 06:47:00,
2013-08-05 00:52:00,55.9,28.7,29.99,West,261,0.0,0.0,35,0.00,,---,0.00,VWS V14.01,2013-08-05 06:52:00,
2013-08-05 00:57:00,55.8,28.5,29.99,West,261,0.0,0.0,35,0.00,,---,0.00,VWS V14.01,2013-08-05 06:57:00,
2013-08-05 01:02:00,55.6,28.4,29.99,West,261,0.0,0.0,35,0.00,,---,0.00,VWS V14.01,2013-08-05 07:02:00,
2013-08-05 01:07:00,55.4,28.2,29.99,SW,233,2.7,2.7,35,0.00,,---,0.00,VWS V14.01,2013-08-05 07:07:00,
2013-08-05 01:12:00,56.1,28.9,29.99,WSW,247,0.0,2.7,35,0.00,,---,0.00,VWS V14.01,2013-08-05 07:12:00,
2013-08-05 01:17:00,56.1,28.9,29.99,WSW,247,0.0,0.0,35,0.00,,---,0.00,VWS V14.01,2013-08-05 07:17:00,
2013-08-05 01:22:00,55.8,28.5,29.99,WSW,247,0.0,0.0,35,0.00,,---,0.00,VWS V14.01,2013-08-05 07:22:00,
2013-08-05 01:27:00,55.4,28.2,29.99,WSW,247,0.0,0.0,35,0.00,,---,0.00,VWS V14.01,2013-08-05 07:27:00,
2013-08-05 01:32:00,54.9,28.4,29.99,WSW,247,0.0,0.0,36,0.00,,---,0.00,VWS V14.01,2013-08-05 07:32:00,
2013-08-05 01:37:00,54.3,28.0,29.99,WSW,247,0.0,0.0,36,0.00,,---,0.04,VWS V14.01,2013-08-05 07:37:00,
2013-08-05 01:42:00,54.0,28.3,29.99,WSW,248,0.0,0.0,37,0.00,,---,0.00,VWS V14.01,2013-08-05 07:42:00,
2013-08-05 01:47:00,53.4,27.8,29.99,West,265,0.0,0.0,37,0.00,,---,0.00,VWS V14.01,2013-08-05 07:47:00,
2013-08-05 01:52:00,53.2,27.7,29.99,West,265,0.0,0.0,37,0.00,,---,0.00,VWS V14.01,2013-08-05 07:52:00,
2013-08-05 01:57:00,53.2,28.3,29.99,West,265,0.0,0.0,38,0.00,,---,0.00,VWS V14.01,2013-08-05 07:57:00,
2013-08-05 02:02:00,53.2,28.3,29.99,West,270,0.0,2.7,38,0.00,,---,0.00,VWS V14.01,2013-08-05 08:02:00,
2013-08-05 02:07:00,53.4,28.5,29.99,West,270,0.0,2.7,38,0.00,,---,0.00,VWS V14.01,2013-08-05 08:07:00,
2013-08-05 02:12:00,53.4,28.5,29.99,West,270,0.0,2.7,38,0.00,,---,0.00,VWS V14.01,2013-08-05 08:12:00,
2013-08-05 02:17:00,53.2,28.3,29.99,West,270,0.0,0.0,38,0.00,,---,0.00,VWS V14.01,2013-08-05 08:17:00,
2013-08-05 02:22:00,53.4,28.5,29.99,West,270,0.0,0.0,38,0.00,,---,0.00,VWS V14.01,2013-08-05 08:22:00,
2013-08-05 02:27:00,53.8,28.1,29.99,West,270,0.0,0.0,37,0.00,,---,0.00,VWS V14.01,2013-08-05 08:27:00,
2013-08-05 02:32:00,53.6,28.6,29.99,West,270,0.0,0.0,38,0.00,,---,0.00,VWS V14.01,2013-08-05 08:32:00,
2013-08-05 02:37:00,53.2,28.3,29.99,West,270,0.0,0.0,38,0.00,,---,0.00,VWS V14.01,2013-08-05 08:37:00,
2013-08-05 02:42:00,53.1,28.1,29.99,West,270,0.0,0.0,38,0.00,,---,0.00,VWS V14.01,2013-08-05 08:42:00,
2013-08-05 02:47:00,52.9,28.6,29.99,West,270,0.0,0.0,39,0.00,,---,0.00,VWS V14.01,2013-08-05 08:47:00,
2013-08-05 02:52:00,52.7,28.5,29.99,WSW,246,0.0,3.1,39,0.00,,---,0.00,VWS V14.01,2013-08-05 08:52:00,
2013-08-05 02:57:00,52.9,28.6,29.99,West,275,0.0,4.0,39,0.00,,---,0.00,VWS V14.01,2013-08-05 08:57:00,
2013-08-05 03:02:00,53.1,28.8,29.99,WSW,241,0.0,2.7,39,0.00,,---,0.00,VWS V14.01,2013-08-05 09:02:00,
2013-08-05 03:07:00,53.2,28.3,29.99,WSW,240,0.0,2.7,38,0.00,,---,0.00,VWS V14.01,2013-08-05 09:07:00,
2013-08-05 03:13:00,53.1,28.1,29.99,WSW,247,0.0,2.7,38,0.00,,---,0.00,VWS V14.01,2013-08-05 09:13:00,
2013-08-05 03:17:00,52.7,27.8,29.99,WSW,247,0.0,0.0,38,0.00,,---,0.00,VWS V14.01,2013-08-05 09:17:00,
2013-08-05 03:23:00,52.0,27.2,29.99,WSW,247,0.0,0.0,38,0.00,,---,0.00,VWS V14.01,2013-08-05 09:23:00,
2013-08-05 03:28:00,51.8,27.6,29.99,SW,230,0.0,0.0,39,0.00,,---,0.00,VWS V14.01,2013-08-05 09:28:00,
2013-08-05 03:33:00,52.0,27.8,29.99,SW,230,0.0,0.0,39,0.00,,---,0.00,VWS V14.01,2013-08-05 09:33:00,
2013-08-05 03:39:00,52.2,28.0,29.99,WSW,244,0.0,2.7,39,0.00,,---,0.00,VWS V14.01,2013-08-05 09:39:00,
2013-08-05 03:44:00,52.2,28.0,29.99,SW,216,0.0,3.1,39,0.00,,---,0.00,VWS V14.01,2013-08-05 09:44:00,
2013-08-05 03:49:00,52.2,28.0,29.99,WSW,248,0.0,0.0,39,0.00,,---,0.00,VWS V14.01,2013-08-05 09:49:00,
2013-08-05 03:55:00,52.2,28.6,29.99,WSW,248,0.0,0.0,40,0.00,,---,0.00,VWS V14.01,2013-08-05 09:55:00,
2013-08-05 04:00:00,52.2,28.6,29.99,WSW,249,0.0,0.0,40,0.00,,---,0.00,VWS V14.01,2013-08-05 10:00:00,
2013-08-05 04:05:00,52.2,28.6,29.99,WSW,249,0.0,0.0,40,0.00,,---,0.00,VWS V14.01,2013-08-05 10:05:00,
2013-08-05 04:10:00,52.0,27.8,29.99,WSW,250,0.0,0.0,39,0.00,,---,0.00,VWS V14.01,2013-08-05 10:10:00,
2013-08-05 04:15:00,51.6,28.1,29.99,WSW,249,0.0,0.0,40,0.00,,---,0.00,VWS V14.01,2013-08-05 10:15:00,
2013-08-05 04:20:00,51.1,27.6,29.99,WSW,249,0.0,0.0,40,0.00,,---,0.04,VWS V14.01,2013-08-05 10:20:00,
2013-08-05 04:25:00,50.7,27.9,29.99,WSW,249,0.0,0.0,41,0.00,,---,0.00,VWS V14.01,2013-08-05 10:25:00,
2013-08-05 04:30:00,50.7,27.9,29.99,WSW,249,0.0,0.0,41,0.00,,---,0.00,VWS V14.01,2013-08-05 10:30:00,
2013-08-05 04:35:00,50.7,28.5,29.99,SSW,196,0.0,0.0,42,0.00,,---,0.00,VWS V14.01,2013-08-05 10:35:00,
2013-08-05 04:40:00,50.9,28.6,29.99,SSW,196,0.0,0.0,42,0.00,,---,0.00,VWS V14.01,2013-08-05 10:40:00,
2013-08-05 04:46:00,50.5,28.3,29.99,SSW,196,0.0,0.0,42,0.00,,---,0.00,VWS V14.01,2013-08-05 10:46:00,
2013-08-05 04:51:00,50.2,28.6,29.99,SSW,196,0.0,0.0,43,0.00,,---,0.00,VWS V14.01,2013-08-05 10:51:00,
2013-08-05 04:56:00,50.0,28.4,29.99,SSW,196,0.0,0.0,43,0.00,,---,0.00,VWS V14.01,2013-08-05 10:56:00,
2013-08-05 05:01:00,50.0,28.4,29.99,WSW,237,0.0,0.0,43,0.00,,---,0.00,VWS V14.01,2013-08-05 11:01:00,
2013-08-05 05:07:00,50.2,29.1,29.99,West,260,0.0,0.0,44,0.00,,---,0.00,VWS V14.01,2013-08-05 11:07:00,
2013-08-05 05:11:00,50.5,29.5,29.99,West,260,0.0,0.0,44,0.00,,---,0.00,VWS V14.01,2013-08-05 11:11:00,
2013-08-05 05:16:00,50.5,29.5,29.99,West,260,0.0,0.0,44,0.00,,---,0.00,VWS V14.01,2013-08-05 11:16:00,
2013-08-05 05:22:00,50.4,29.3,29.99,West,260,0.0,0.0,44,0.00,,---,0.00,VWS V14.01,2013-08-05 11:22:00,
2013-08-05 05:27:00,50.4,29.8,29.99,West,269,0.0,3.6,45,0.00,,---,0.00,VWS V14.01,2013-08-05 11:27:00,
2013-08-05 05:32:00,50.2,29.1,29.99,SW,218,3.1,3.1,44,0.00,,---,0.00,VWS V14.01,2013-08-05 11:32:00,
2013-08-05 05:37:00,50.5,29.5,29.99,SW,231,0.0,3.1,44,0.00,,---,0.00,VWS V14.01,2013-08-05 11:37:00,
2013-08-05 05:42:00,50.7,29.6,29.99,SW,234,0.0,3.1,44,0.00,,---,0.00,VWS V14.01,2013-08-05 11:42:00,
2013-08-05 05:47:00,50.9,29.8,29.99,South,188,0.0,0.0,44,0.00,,---,0.00,VWS V14.01,2013-08-05 11:47:00,
2013-08-05 05:52:00,50.9,29.8,29.99,SSW,212,0.0,0.0,44,0.00,,---,0.00,VWS V14.01,2013-08-05 11:52:00,
2013-08-05 05:57:00,51.1,30.0,29.99,SSW,213,0.0,0.0,44,0.00,,---,0.00,VWS V14.01,2013-08-05 11:57:00,
2013-08-05 06:02:00,50.7,29.6,29.99,SSW,213,0.0,0.0,44,0.00,,---,0.00,VWS V14.01,2013-08-05 12:02:00,
2013-08-05 06:07:00,50.4,29.8,29.99,SW,218,0.0,0.0,45,0.00,,---,0.00,VWS V14.01,2013-08-05 12:07:00,
2013-08-05 06:12:00,50.5,30.0,29.99,SW,233,0.0,0.0,45,0.00,,---,0.00,VWS V14.01,2013-08-05 12:12:00,
2013-08-05 06:17:00,50.7,30.2,29.99,SW,233,0.0,0.0,45,0.00,,---,0.00,VWS V14.01,2013-08-05 12:17:00,
2013-08-05 06:23:00,50.7,30.2,29.99,SW,233,0.0,0.0,45,0.00,,---,0.00,VWS V14.01,2013-08-05 12:23:00,
2013-08-05 06:28:00,50.7,30.2,29.99,SW,215,0.0,0.0,45,0.00,,---,0.00,VWS V14.01,2013-08-05 12:28:00,
2013-08-05 06:33:00,50.7,30.2,29.99,SW,215,0.0,0.0,45,0.00,,---,0.00,VWS V14.01,2013-08-05 12:33:00,
2013-08-05 06:38:00,50.7,30.7,29.99,SW,215,0.0,0.0,46,0.00,,---,0.00,VWS V14.01,2013-08-05 12:38:00,
2013-08-05 06:43:00,50.9,30.9,29.99,SW,235,0.0,0.0,46,0.00,,---,0.00,VWS V14.01,2013-08-05 12:43:00,
2013-08-05 06:48:00,51.3,31.2,29.99,SW,235,0.0,0.0,46,0.00,,---,0.00,VWS V14.01,2013-08-05 12:48:00,
2013-08-05 06:53:00,51.3,31.2,29.99,SW,235,0.0,0.0,46,0.00,,---,0.00,VWS V14.01,2013-08-05 12:53:00,
2013-08-05 06:58:00,51.6,31.5,29.99,WSW,251,0.0,3.1,46,0.00,,---,0.00,VWS V14.01,2013-08-05 12:58:00,
2013-08-05 07:04:00,52.2,32.0,29.99,South,178,2.7,3.1,46,0.00,,---,0.00,VWS V14.01,2013-08-05 13:04:00,
2013-08-05 07:09:00,53.2,32.5,29.99,SSW,212,0.0,3.6,45,0.00,,---,0.00,VWS V14.01,2013-08-05 13:09:00,
2013-08-05 07:14:00,53.6,32.2,29.99,SSW,212,0.0,3.6,44,0.00,,---,0.00,VWS V14.01,2013-08-05 13:14:00,
2013-08-05 07:19:00,54.0,32.6,29.99,SSW,212,0.0,0.0,44,0.00,,---,0.00,VWS V14.01,2013-08-05 13:19:00,
2013-08-05 07:24:00,54.3,32.3,29.99,SSW,212,0.0,0.0,43,0.00,,---,0.00,VWS V14.01,2013-08-05 13:24:00,
2013-08-05 07:29:00,55.2,33.1,29.99,SSW,212,0.0,0.0,43,0.00,,---,0.00,VWS V14.01,2013-08-05 13:29:00,
2013-08-05 07:34:00,55.8,33.0,29.99,SSW,212,0.0,0.0,42,0.00,,---,0.00,VWS V14.01,2013-08-05 13:34:00,
2013-08-05 07:39:00,56.7,33.8,29.99,SSW,212,0.0,0.0,42,0.00,,---,0.00,VWS V14.01,2013-08-05 13:39:00,
2013-08-05 07:44:00,57.7,34.2,29.99,SSW,212,0.0,0.0,41,0.00,,---,0.00,VWS V14.01,2013-08-05 13:44:00,
2013-08-05 07:49:00,57.7,31.7,29.99,SSW,195,0.0,0.0,37,0.00,,---,0.00,VWS V14.01,2013-08-05 13:49:00,
2013-08-05 07:54:00,57.9,31.8,29.99,SSW,194,0.0,0.0,37,0.00,,---,0.00,VWS V14.01,2013-08-05 13:54:00,
2013-08-05 07:59:00,57.9,31.8,29.99,NE,38,0.0,0.0,37,0.00,,---,0.00,VWS V14.01,2013-08-05 13:59:00,
2013-08-05 08:04:00,57.9,31.8,29.99,North,357,0.0,0.0,37,0.00,,---,0.00,VWS V14.01,2013-08-05 14:04:00,
2013-08-05 08:09:00,58.1,32.0,29.99,North,353,0.0,0.0,37,0.00,,---,0.00,VWS V14.01,2013-08-05 14:09:00,
2013-08-05 08:14:00,58.1,32.0,29.99,North,353,0.0,0.0,37,0.00,,---,0.00,VWS V14.01,2013-08-05 14:14:00,
2013-08-05 08:19:00,57.9,31.8,29.99,North,0,0.0,0.0,37,0.00,,---,0.00,VWS V14.01,2013-08-05 14:19:00,
2013-08-05 08:24:00,57.9,31.8,29.99,North,357,0.0,0.0,37,0.00,,---,0.00,VWS V14.01,2013-08-05 14:24:00,
2013-08-05 08:30:00,57.9,32.5,29.99,North,357,0.0,0.0,38,0.00,,---,0.00,VWS V14.01,2013-08-05 14:30:00,
2013-08-05 08:35:00,57.7,32.3,29.99,North,357,0.0,0.0,38,0.00,,---,0.00,VWS V14.01,2013-08-05 14:35:00,
2013-08-05 08:40:00,57.7,32.3,29.99,North,357,0.0,0.0,38,0.00,,---,0.00,VWS V14.01,2013-08-05 14:40:00,
2013-08-05 08:45:00,57.9,32.5,29.99,North,357,0.0,0.0,38,0.00,,---,0.00,VWS V14.01,2013-08-05 14:45:00,
2013-08-05 08:50:00,58.1,32.7,29.99,North,357,0.0,0.0,38,0.00,,---,0.00,VWS V14.01,2013-08-05 14:50:00,
2013-08-05 08:55:00,58.8,32.6,29.99,North,357,0.0,0.0,37,0.00,,---,0.00,VWS V14.01,2013-08-05 14:55:00,
2013-08-05 09:00:00,60.1,33.1,29.99,North,357,0.0,0.0,36,0.00,,---,0.00,VWS V14.01,2013-08-05 15:00:00,
2013-08-05 09:05:00,60.8,33.0,29.99,North,357,0.0,0.0,35,0.00,,---,0.00,VWS V14.01,2013-08-05 15:05:00,
2013-08-05 09:10:00,61.0,33.2,29.99,North,357,0.0,0.0,35,0.00,,---,0.00,VWS V14.01,2013-08-05 15:10:00,
2013-08-05 09:15:00,60.6,32.8,29.99,North,357,0.0,0.0,35,0.00,,---,0.00,VWS V14.01,2013-08-05 15:15:00,
2013-08-05 09:20:00,60.6,32.8,29.99,North,357,0.0,0.0,35,0.00,,---,0.00,VWS V14.01,2013-08-05 15:20:00,
2013-08-05 09:25:00,60.6,32.8,29.99,North,357,0.0,0.0,35,0.00,,---,0.00,VWS V14.01,2013-08-05 15:25:00,
2013-08-05 09:30:00,60.3,31.8,29.99,North,357,0.0,0.0,34,0.00,,---,0.00,VWS V14.01,2013-08-05 15:30:00,
2013-08-05 09:35:00,59.9,32.2,29.99,North,0,0.0,0.0,35,0.00,,---,0.00,VWS V14.01,2013-08-05 15:35:00,
2013-08-05 09:40:00,59.9,32.2,29.99,North,0,0.0,0.0,35,0.00,,---,0.00,VWS V14.01,2013-08-05 15:40:00,
2013-08-05 09:45:00,60.3,32.5,29.99,North,0,0.0,0.0,35,0.00,,---,0.00,VWS V14.01,2013-08-05 15:45:00,
2013-08-05 09:50:00,60.4,33.4,29.99,East,84,0.0,2.7,36,0.00,,---,0.00,VWS V14.01,2013-08-05 15:50:00,
2013-08-05 09:55:00,61.2,33.3,29.99,NNE,12,0.0,2.7,35,0.00,,---,0.00,VWS V14.01,2013-08-05 15:55:00,
2013-08-05 10:00:00,61.5,33.6,29.99,NNE,32,0.0,0.0,35,0.00,,---,0.00,VWS V14.01,2013-08-05 16:00:00,
2013-08-05 10:05:00,61.7,33.1,30.02,North,357,0.0,0.0,34,0.00,,---,0.00,VWS V14.01,2013-08-05 16:05:00,
2013-08-05 10:10:00,62.1,33.4,30.02,North,0,0.0,0.0,34,0.00,,---,0.04,VWS V14.01,2013-08-05 16:10:00,
2013-08-05 10:15:00,62.1,33.4,30.02,North,0,0.0,2.2,34,0.00,,---,0.00,VWS V14.01,2013-08-05 16:15:00,
2013-08-05 10:20:00,62.1,34.1,30.02,North,9,0.0,2.7,35,0.00,,---,0.00,VWS V14.01,2013-08-05 16:20:00,
2013-08-05 10:26:00,63.0,34.2,30.02,North,2,0.0,2.7,34,0.00,,---,0.00,VWS V14.01,2013-08-05 16:26:00,
2013-08-05 10:31:00,65.3,35.5,30.02,North,3,0.0,0.0,33,0.00,,---,0.00,VWS V14.01,2013-08-05 16:31:00,
2013-08-05 10:35:00,67.6,36.0,29.99,NE,50,2.7,3.6,31,0.00,,---,0.00,VWS V14.01,2013-08-05 16:35:00,
2013-08-05 10:40:00,69.8,33.4,29.99,NNE,26,0.0,4.0,26,0.00,,---,0.00,VWS V14.01,2013-08-05 16:40:00,
2013-08-05 10:46:00,70.3,32.9,29.99,ENE,60,4.0,4.9,25,0.00,,---,0.00,VWS V14.01,2013-08-05 16:46:00,
2013-08-05 10:51:00,72.0,33.2,29.99,ENE,74,0.0,5.4,24,0.00,,---,0.00,VWS V14.01,2013-08-05 16:51:00,
2013-08-05 10:56:00,73.0,34.1,29.99,ESE,105,2.7,5.4,24,0.00,,---,0.00,VWS V14.01,2013-08-05 16:56:00,
2013-08-05 11:01:00,75.0,34.7,29.99,East,85,2.7,3.1,23,0.00,,---,0.00,VWS V14.01,2013-08-05 17:01:00,
2013-08-05 11:06:00,74.3,33.0,29.99,North,8,0.0,4.0,22,0.00,,---,0.00,VWS V14.01,2013-08-05 17:06:00,
2013-08-05 11:11:00,70.3,30.8,29.99,North,357,0.0,4.0,23,0.00,,---,0.00,VWS V14.01,2013-08-05 17:11:00,
2013-08-05 11:16:00,68.2,30.0,29.99,North,357,0.0,0.0,24,0.00,,---,0.00,VWS V14.01,2013-08-05 17:16:00,
2013-08-05 11:21:00,67.6,30.6,29.99,NE,37,0.0,0.0,25,0.00,,---,0.00,VWS V14.01,2013-08-05 17:21:00,
2013-08-05 11:26:00,67.1,30.1,29.99,NE,37,0.0,0.0,25,0.00,,---,0.00,VWS V14.01,2013-08-05 17:26:00,
2013-08-05 11:31:00,66.9,30.0,29.99,WNW,299,0.0,0.0,25,0.00,,---,0.00,VWS V14.01,2013-08-05 17:31:00,
2013-08-05 11:36:00,67.6,30.6,29.99,ENE,61,0.0,0.0,25,0.00,,---,0.00,VWS V14.01,2013-08-05 17:36:00,
2013-08-05 11:41:00,69.8,33.4,29.99,East,83,0.0,4.0,26,0.00,,---,0.00,VWS V14.01,2013-08-05 17:41:00,
2013-08-05 11:47:00,71.4,33.8,29.99,East,93,2.7,4.0,25,0.00,,---,0.00,VWS V14.01,2013-08-05 17:47:00,
2013-08-05 11:52:00,73.0,33.1,29.96,East,93,0.0,4.0,23,0.00,,---,0.04,VWS V14.01,2013-08-05 17:52:00,
2013-08-05 11:57:00,74.7,34.4,29.96,NE,44,0.0,4.0,23,0.00,,---,0.00,VWS V14.01,2013-08-05 17:57:00,
2013-08-05 12:02:00,73.9,32.7,29.96,North,3,0.0,4.0,22,0.00,,---,0.00,VWS V14.01,2013-08-05 18:02:00,
2013-08-05 12:07:00,72.5,31.5,29.99,North,357,0.0,4.0,22,0.00,,---,0.00,VWS V14.01,2013-08-05 18:07:00,
2013-08-05 12:12:00,73.4,32.3,29.99,NE,34,0.0,4.0,22,0.00,,---,0.00,VWS V14.01,2013-08-05 18:12:00,
2013-08-05 12:17:00,75.0,33.6,29.99,ENE,67,0.0,0.0,22,0.00,,---,0.00,VWS V14.01,2013-08-05 18:17:00,
2013-08-05 12:22:00,74.8,32.3,29.96,North,0,0.0,3.6,21,0.00,,---,0.00,VWS V14.01,2013-08-05 18:22:00,
2013-08-05 12:27:00,75.7,33.1,29.96,NNE,12,0.0,3.6,21,0.00,,---,0.00,VWS V14.01,2013-08-05 18:27:00,
2013-08-05 12:32:00,75.7,33.1,29.96,ENE,58,2.7,2.7,21,0.00,,---,0.00,VWS V14.01,2013-08-05 18:32:00,
2013-08-05 12:37:00,73.9,32.7,29.96,NE,37,0.0,2.7,22,0.00,,---,0.00,VWS V14.01,2013-08-05 18:37:00,
2013-08-05 12:42:00,72.5,32.6,29.96,North,0,0.0,3.1,23,0.00,,---,0.00,VWS V14.01,2013-08-05 18:42:00,
2013-08-05 12:47:00,72.5,32.6,29.96,NNE,22,0.0,3.1,23,0.00,,---,0.00,VWS V14.01,2013-08-05 18:47:00,
2013-08-05 12:52:00,71.2,32.6,29.96,North,357,2.2,3.1,24,0.00,,---,0.00,VWS V14.01,2013-08-05 18:52:00,
2013-08-05 12:57:00,71.8,33.1,29.96,NE,39,0.0,3.6,24,0.00,,---,0.00,VWS V14.01,2013-08-05 18:57:00,
2013-08-05 13:02:00,72.1,32.3,29.96,North,357,0.0,0.0,23,0.00,,---,0.00,VWS V14.01,2013-08-05 19:02:00,
2013-08-05 13:07:00,73.2,33.2,29.96,West,275,0.0,0.0,23,0.00,,---,0.00,VWS V14.01,2013-08-05 19:07:00,
2013-08-05 13:12:00,75.4,33.9,29.96,North,357,0.0,3.1,22,0.00,,---,0.00,VWS V14.01,2013-08-05 19:12:00,
2013-08-05 13:17:00,75.7,34.2,29.96,NNW,328,0.0,0.0,22,0.00,,---,0.00,VWS V14.01,2013-08-05 19:17:00,
2013-08-05 13:22:00,76.1,34.5,29.96,NNE,27,0.0,2.7,22,0.00,,---,0.00,VWS V14.01,2013-08-05 19:22:00,
2013-08-05 13:27:00,75.9,33.2,29.96,North,357,0.0,3.6,21,0.00,,---,0.00,VWS V14.01,2013-08-05 19:27:00,
2013-08-05 13:33:00,74.1,32.9,29.96,NNW,346,0.0,3.6,22,0.00,,---,0.00,VWS V14.01,2013-08-05 19:33:00,
2013-08-05 13:37:00,73.8,32.6,29.96,WNW,302,0.0,4.0,22,0.00,,---,0.00,VWS V14.01,2013-08-05 19:37:00,
2013-08-05 13:42:00,73.6,32.4,29.96,NE,38,0.0,4.0,22,0.00,,---,0.00,VWS V14.01,2013-08-05 19:42:00,
2013-08-05 13:48:00,73.2,32.1,29.96,NNE,30,0.0,2.7,22,0.00,,---,0.00,VWS V14.01,2013-08-05 19:48:00,
2013-08-05 13:53:00,75.2,32.6,29.96,North,353,2.7,3.1,21,0.00,,---,0.00,VWS V14.01,2013-08-05 19:53:00,
2013-08-05 13:58:00,76.8,34.0,29.96,NNE,29,0.0,3.1,21,0.00,,---,0.00,VWS V14.01,2013-08-05 19:58:00,
2013-08-05 14:03:00,78.1,33.8,29.96,North,353,0.0,2.2,20,0.00,,---,0.00,VWS V14.01,2013-08-05 20:03:00,
2013-08-05 14:09:00,79.3,34.8,29.96,ENE,60,2.7,4.0,20,0.00,,---,0.00,VWS V14.01,2013-08-05 20:09:00,
2013-08-05 14:15:00,81.0,34.9,29.96,North,3,0.0,0.0,19,0.00,,---,0.00,VWS V14.01,2013-08-05 20:15:00,
2013-08-05 14:21:00,81.7,35.5,29.93,NE,51,0.0,4.0,19,0.00,,---,0.00,VWS V14.01,2013-08-05 20:21:00,
2013-08-05 14:26:00,81.7,35.5,29.93,East,79,3.6,4.0,19,0.00,,---,0.00,VWS V14.01,2013-08-05 20:26:00,
2013-08-05 14:31:00,83.3,36.8,29.93,East,92,4.0,4.0,19,0.00,,---,0.00,VWS V14.01,2013-08-05 20:31:00,
2013-08-05 14:36:00,83.1,32.3,29.93,NE,36,0.0,4.0,16,0.00,,---,0.00,VWS V14.01,2013-08-05 20:36:00,
2013-08-05 14:42:00,83.1,32.3,29.93,North,353,3.1,4.0,16,0.00,,---,0.00,VWS V14.01,2013-08-05 20:42:00,
2013-08-05 14:47:00,83.3,36.8,29.93,North,0,3.1,3.1,19,0.00,,---,0.00,VWS V14.01,2013-08-05 20:47:00,
2013-08-05 14:52:00,84.0,37.4,29.93,East,95,3.1,4.9,19,0.00,,---,0.00,VWS V14.01,2013-08-05 20:52:00,
2013-08-05 14:57:00,84.4,36.3,29.93,ENE,60,2.2,4.9,18,0.00,,---,0.00,VWS V14.01,2013-08-05 20:57:00,
2013-08-05 15:02:00,85.1,36.9,29.93,North,0,0.0,0.0,18,0.00,,---,0.00,VWS V14.01,2013-08-05 21:02:00,
2013-08-05 15:07:00,85.8,37.5,29.93,NE,43,0.0,3.1,18,0.00,,---,0.00,VWS V14.01,2013-08-05 21:07:00,
2013-08-05 15:12:00,85.1,36.9,29.93,North,350,2.7,3.1,18,0.00,,---,0.00,VWS V14.01,2013-08-05 21:12:00,
2013-08-05 15:17:00,85.3,37.0,29.93,NW,306,0.0,3.6,18,0.00,,---,0.00,VWS V14.01,2013-08-05 21:17:00,
2013-08-05 15:22:00,85.3,34.1,29.93,NNE,21,0.0,3.6,16,0.00,,---,0.00,VWS V14.01,2013-08-05 21:22:00,
2013-08-05 15:27:00,86.0,34.6,29.93,ENE,67,4.0,4.0,16,0.00,,---,0.00,VWS V14.01,2013-08-05 21:27:00,
2013-08-05 15:32:00,87.1,35.5,29.93,North,0,0.0,2.2,16,0.00,,---,0.00,VWS V14.01,2013-08-05 21:32:00,
2013-08-05 15:37:00,87.1,35.5,29.91,NW,311,0.0,3.6,16,0.00,,---,0.00,VWS V14.01,2013-08-05 21:37:00,
2013-08-05 15:42:00,86.5,35.1,29.91,NE,36,0.0,3.6,16,0.00,,---,0.00,VWS V14.01,2013-08-05 21:42:00,
2013-08-05 15:48:00,88.3,34.9,29.91,NE,55,2.2,3.1,15,0.00,,---,0.00,VWS V14.01,2013-08-05 21:48:00,
2013-08-05 15:53:00,89.1,35.5,29.91,NE,44,2.2,5.4,15,0.00,,---,0.00,VWS V14.01,2013-08-05 21:53:00,
2013-08-05 15:58:00,89.2,35.6,29.91,NNE,13,2.7,5.4,15,0.00,,---,0.00,VWS V14.01,2013-08-05 21:58:00,
2013-08-05 16:02:00,88.2,31.2,29.91,North,0,0.0,0.0,13,0.00,,---,0.00,VWS V14.01,2013-08-05 22:02:00,
2013-08-05 16:08:00,87.3,30.5,29.91,NNE,29,0.0,4.0,13,0.00,,---,0.00,VWS V14.01,2013-08-05 22:08:00,
2013-08-05 16:13:00,87.4,35.8,29.91,West,281,0.0,4.0,16,0.00,,---,0.00,VWS V14.01,2013-08-05 22:13:00,
2013-08-05 16:18:00,87.8,30.9,29.91,NNE,28,0.0,3.6,13,0.00,,---,0.00,VWS V14.01,2013-08-05 22:18:00,
2013-08-05 16:23:00,88.7,31.6,29.91,NNW,329,0.0,3.6,13,0.00,,---,0.00,VWS V14.01,2013-08-05 22:23:00,
2013-08-05 16:28:00,88.3,31.3,29.91,NNW,341,0.0,3.6,13,0.00,,---,0.00,VWS V14.01,2013-08-05 22:28:00,
2013-08-05 16:33:00,87.3,30.5,29.91,WNW,287,0.0,2.7,13,0.00,,---,0.00,VWS V14.01,2013-08-05 22:33:00,
2013-08-05 16:38:00,88.5,31.5,29.91,West,267,0.0,2.7,13,0.00,,---,0.00,VWS V14.01,2013-08-05 22:38:00,
2013-08-05 16:43:00,88.0,31.0,29.91,ENE,60,2.2,2.7,13,0.00,,---,0.00,VWS V14.01,2013-08-05 22:43:00,
2013-08-05 16:48:00,87.4,30.6,29.91,NW,306,2.2,3.6,13,0.00,,---,0.00,VWS V14.01,2013-08-05 22:48:00,
2013-08-05 16:53:00,88.2,31.2,29.91,ESE,123,4.0,6.3,13,0.00,,---,0.00,VWS V14.01,2013-08-05 22:53:00,
2013-08-05 16:58:00,89.1,31.9,29.91,SE,135,0.0,7.6,13,0.00,,---,0.00,VWS V14.01,2013-08-05 22:58:00,
2013-08-05 17:03:00,89.8,30.5,29.91,North,353,2.7,4.0,12,0.00,,---,0.00,VWS V14.01,2013-08-05 23:03:00,
2013-08-05 17:08:00,90.5,31.0,29.91,NNE,32,3.1,6.3,12,0.00,,---,0.00,VWS V14.01,2013-08-05 23:08:00,
2013-08-05 17:13:00,89.6,30.3,29.91,WSW,256,4.9,6.3,12,0.00,,---,0.00,VWS V14.01,2013-08-05 23:13:00,
2013-08-05 17:18:00,89.2,32.0,29.91,West,280,2.2,4.0,13,0.00,,---,0.00,VWS V14.01,2013-08-05 23:18:00,
2013-08-05 17:23:00,90.0,30.6,29.88,South,175,4.9,5.8,12,0.00,,---,0.00,VWS V14.01,2013-08-05 23:23:00,
2013-08-05 17:28:00,89.4,32.2,29.88,WNW,288,2.2,5.8,13,0.00,,---,0.00,VWS V14.01,2013-08-05 23:28:00,
2013-08-05 17:33:00,89.6,30.3,29.88,West,259,5.4,6.3,12,0.00,,---,0.00,VWS V14.01,2013-08-05 23:33:00,
2013-08-05 17:38:00,89.2,32.0,29.88,North,353,0.0,7.2,13,0.00,,---,0.00,VWS V14.01,2013-08-05 23:38:00,
2013-08-05 17:43:00,89.2,32.0,29.88,WSW,246,0.0,7.2,13,0.00,,---,0.00,VWS V14.01,2013-08-05 23:43:00,
2013-08-05 17:48:00,88.9,31.7,29.88,SE,146,3.1,3.1,13,0.00,,---,0.00,VWS V14.01,2013-08-05 23:48:00,
2013-08-05 17:53:00,88.2,31.2,29.91,West,264,0.0,3.1,13,0.00,,---,0.00,VWS V14.01,2013-08-05 23:53:00,
2013-08-05 17:58:00,88.7,31.6,29.91,WSW,247,0.0,3.1,13,0.00,,---,0.00,VWS V14.01,2013-08-05 23:58:00,
2013-08-05 18:03:00,90.1,30.7,29.91,NNE,21,0.0,4.0,12,0.00,,---,0.00,VWS V14.01,2013-08-06 00:03:00,
2013-08-05 18:09:00,90.1,30.7,29.88,NNE,19,0.0,4.0,12,0.00,,---,0.00,VWS V14.01,2013-08-06 00:09:00,
2013-08-05 18:14:00,90.3,30.9,29.88,North,0,0.0,4.0,12,0.00,,---,0.00,VWS V14.01,2013-08-06 00:14:00,
2013-08-05 18:19:00,90.0,30.6,29.88,NNW,329,0.0,0.0,12,0.00,,---,0.00,VWS V14.01,2013-08-06 00:19:00,
2013-08-05 18:24:00,89.2,32.0,29.88,NNE,25,0.0,3.1,13,0.00,,---,0.00,VWS V14.01,2013-08-06 00:24:00,
2013-08-05 18:29:00,88.2,31.2,29.88,NNE,23,0.0,4.9,13,0.00,,---,0.00,VWS V14.01,2013-08-06 00:29:00,
2013-08-05 18:34:00,88.0,31.0,29.88,NNW,342,0.0,3.1,13,0.00,,---,0.00,VWS V14.01,2013-08-06 00:34:00,
2013-08-05 18:39:00,88.7,31.6,29.88,SW,219,0.0,4.0,13,0.00,,---,0.00,VWS V14.01,2013-08-06 00:39:00,
2013-08-05 18:44:00,89.8,30.5,29.88,NE,54,3.1,4.9,12,0.00,,---,0.00,VWS V14.01,2013-08-06 00:44:00,
2013-08-05 18:49:00,88.0,31.0,29.88,West,262,0.0,3.1,13,0.00,,---,0.00,VWS V14.01,2013-08-06 00:49:00,
2013-08-05 18:54:00,86.4,29.8,29.88,North,6,0.0,3.1,13,0.00,,---,0.00,VWS V14.01,2013-08-06 00:54:00,
2013-08-05 18:59:00,86.2,29.6,29.88,North,0,0.0,3.1,13,0.00,,---,0.00,VWS V14.01,2013-08-06 00:59:00,
2013-08-05 19:05:00,86.4,29.8,29.91,North,2,0.0,0.0,13,0.00,,---,0.00,VWS V14.01,2013-08-06 01:05:00,
2013-08-05 19:09:00,85.6,29.2,29.91,NNW,332,0.0,0.0,13,0.00,,---,0.00,VWS V14.01,2013-08-06 01:09:00,
2013-08-05 19:14:00,84.9,28.6,29.91,NW,305,4.0,7.2,13,0.00,,---,0.00,VWS V14.01,2013-08-06 01:14:00,
2013-08-05 19:20:00,84.4,28.2,29.91,NNW,330,0.0,2.2,13,0.00,,---,0.00,VWS V14.01,2013-08-06 01:20:00,
2013-08-05 19:24:00,83.8,29.6,29.91,NNW,340,0.0,2.2,14,0.00,,---,0.00,VWS V14.01,2013-08-06 01:24:00,
2013-08-05 19:30:00,83.5,29.3,29.91,NNW,335,0.0,3.6,14,0.00,,---,0.00,VWS V14.01,2013-08-06 01:30:00,
2013-08-05 19:34:00,83.1,29.0,29.91,WNW,289,0.0,4.0,14,0.00,,---,0.00,VWS V14.01,2013-08-06 01:34:00,
2013-08-05 19:40:00,82.6,28.6,29.91,NNE,12,0.0,4.0,14,0.00,,---,0.00,VWS V14.01,2013-08-06 01:40:00,
2013-08-05 19:45:00,82.2,28.3,29.91,NNW,341,0.0,4.0,14,0.00,,---,0.00,VWS V14.01,2013-08-06 01:45:00,
2013-08-05 19:50:00,81.7,27.9,29.91,West,270,0.0,2.7,14,0.00,,---,0.00,VWS V14.01,2013-08-06 01:50:00,
2013-08-05 19:55:00,81.0,27.3,29.91,West,266,0.0,2.7,14,0.00,,---,0.00,VWS V14.01,2013-08-06 01:55:00,
2013-08-05 20:00:00,80.8,27.2,29.91,West,260,0.0,2.7,14,0.00,,---,0.00,VWS V14.01,2013-08-06 02:00:00,
2013-08-05 20:05:00,80.6,27.0,29.91,West,270,0.0,0.0,14,0.00,,---,0.00,VWS V14.01,2013-08-06 02:05:00,
2013-08-05 20:10:00,80.2,28.4,29.91,North,357,0.0,0.0,15,0.00,,---,0.00,VWS V14.01,2013-08-06 02:10:00,
2013-08-05 20:15:00,80.1,28.3,29.91,NW,326,0.0,0.0,15,0.00,,---,0.00,VWS V14.01,2013-08-06 02:15:00,
2013-08-05 20:20:00,79.5,27.9,29.91,WNW,282,0.0,0.0,15,0.00,,---,0.00,VWS V14.01,2013-08-06 02:20:00,
2013-08-05 20:25:00,79.0,27.4,29.91,WNW,284,0.0,0.0,15,0.00,,---,0.00,VWS V14.01,2013-08-06 02:25:00,
2013-08-05 20:30:00,78.4,27.0,29.91,North,3,0.0,0.0,15,0.00,,---,0.00,VWS V14.01,2013-08-06 02:30:00,
2013-08-05 20:35:00,78.1,26.7,29.91,North,3,0.0,0.0,15,0.00,,---,0.00,VWS V14.01,2013-08-06 02:35:00,
2013-08-05 20:40:00,77.4,26.1,29.91,North,3,0.0,0.0,15,0.00,,---,0.00,VWS V14.01,2013-08-06 02:40:00,
2013-08-05 20:45:00,76.5,25.4,29.91,North,3,0.0,0.0,15,0.00,,---,0.00,VWS V14.01,2013-08-06 02:45:00,
2013-08-05 20:50:00,76.1,25.1,29.91,NW,315,0.0,3.1,15,0.00,,---,0.00,VWS V14.01,2013-08-06 02:50:00,
2013-08-05 20:55:00,75.9,25.0,29.91,NW,314,0.0,3.1,15,0.00,,---,0.00,VWS V14.01,2013-08-06 02:55:00,
2013-08-05 21:00:00,75.9,25.0,29.91,NW,315,0.0,3.1,15,0.00,,---,0.00,VWS V14.01,2013-08-06 03:00:00,
2013-08-05 21:05:00,75.4,24.6,29.93,West,278,0.0,0.0,15,0.00,,---,0.00,VWS V14.01,2013-08-06 03:05:00,
2013-08-05 21:10:00,75.0,25.8,29.93,West,270,0.0,0.0,16,0.00,,---,0.00,VWS V14.01,2013-08-06 03:10:00,
2013-08-05 21:15:00,74.8,25.7,29.93,WNW,286,0.0,0.0,16,0.00,,---,0.00,VWS V14.01,2013-08-06 03:15:00,
2013-08-05 21:20:00,74.3,25.2,29.93,NNE,13,0.0,0.0,16,0.00,,---,0.00,VWS V14.01,2013-08-06 03:20:00,
2013-08-05 21:25:00,74.8,25.7,29.93,North,2,0.0,0.0,16,0.00,,---,0.00,VWS V14.01,2013-08-06 03:25:00,
2013-08-05 21:30:00,74.3,25.2,29.93,NNW,334,0.0,0.0,16,0.00,,---,0.00,VWS V14.01,2013-08-06 03:30:00,
2013-08-05 21:35:00,72.1,23.5,29.93,West,281,0.0,3.6,16,0.00,,---,0.00,VWS V14.01,2013-08-06 03:35:00,
2013-08-05 21:40:00,70.3,23.5,29.93,West,272,0.0,3.6,17,0.00,,---,0.00,VWS V14.01,2013-08-06 03:40:00,
2013-08-05 21:45:00,69.1,26.4,29.93,West,260,0.0,0.0,20,0.00,,---,0.00,VWS V14.01,2013-08-06 03:45:00,
2013-08-05 21:50:00,68.2,27.9,29.93,West,262,0.0,0.0,22,0.00,,---,0.00,VWS V14.01,2013-08-06 03:50:00,
2013-08-05 21:55:00,67.5,28.4,29.93,West,267,0.0,2.7,23,0.00,,---,0.00,VWS V14.01,2013-08-06 03:55:00,
2013-08-05 22:00:00,66.9,27.9,29.93,WSW,244,0.0,0.0,23,0.00,,---,0.00,VWS V14.01,2013-08-06 04:00:00,
2013-08-05 22:01:00,66.9,27.9,29.93,WSW,244,0.0,0.0,23,0.00,,---,0.00,VWS V14.01,2013-08-06 04:01:00,
2013-08-05 22:06:00,66.4,27.5,29.93,WSW,248,0.0,0.0,23,0.00,,---,0.00,VWS V14.01,2013-08-06 04:06:00,
2013-08-05 22:11:00,66.2,28.4,29.93,West,266,0.0,0.0,24,0.00,,---,0.00,VWS V14.01,2013-08-06 04:11:00,
2013-08-05 22:16:00,66.2,28.4,29.93,West,269,0.0,2.7,24,0.00,,---,0.00,VWS V14.01,2013-08-06 04:16:00,
2013-08-05 22:21:00,65.8,28.1,29.96,West,269,0.0,2.7,24,0.00,,---,0.00,VWS V14.01,2013-08-06 04:21:00,
2013-08-05 22:26:00,65.3,27.6,29.96,WSW,246,2.7,3.1,24,0.00,,---,0.00,VWS V14.01,2013-08-06 04:26:00,
2013-08-05 22:31:00,65.1,28.5,29.96,West,259,0.0,0.0,25,0.00,,---,0.00,VWS V14.01,2013-08-06 04:31:00,
2013-08-05 22:36:00,65.1,28.5,29.96,West,276,0.0,3.1,25,0.00,,---,0.00,VWS V14.01,2013-08-06 04:36:00,
2013-08-05 22:41:00,65.1,28.5,29.96,SW,236,0.0,3.1,25,0.00,,---,0.00,VWS V14.01,2013-08-06 04:41:00,
2013-08-05 22:46:00,64.8,28.1,29.96,West,265,0.0,0.0,25,0.00,,---,0.00,VWS V14.01,2013-08-06 04:46:00,
2013-08-05 22:51:00,64.2,27.7,29.96,West,277,0.0,2.2,25,0.00,,---,0.00,VWS V14.01,2013-08-06 04:51:00,
2013-08-05 22:56:00,64.6,28.0,29.96,West,259,4.0,4.0,25,0.00,,---,0.00,VWS V14.01,2013-08-06 04:56:00,
2013-08-05 23:01:00,65.1,28.5,29.96,WSW,241,0.0,0.0,25,0.00,,---,0.00,VWS V14.01,2013-08-06 05:01:00,
2013-08-05 23:06:00,65.5,28.8,29.96,WNW,289,0.0,3.6,25,0.00,,---,0.00,VWS V14.01,2013-08-06 05:06:00,
2013-08-05 23:11:00,65.1,28.5,29.96,ENE,72,0.0,3.6,25,0.00,,---,0.00,VWS V14.01,2013-08-06 05:11:00,
2013-08-05 23:16:00,63.0,27.6,29.96,East,90,0.0,0.0,26,0.00,,---,0.00,VWS V14.01,2013-08-06 05:16:00,
2013-08-05 23:21:00,61.0,26.8,29.96,SSW,210,0.0,0.0,27,0.00,,---,0.00,VWS V14.01,2013-08-06 05:21:00,
2013-08-05 23:26:00,60.1,26.9,29.96,SSW,210,0.0,0.0,28,0.00,,---,0.00,VWS V14.01,2013-08-06 05:26:00,
2013-08-05 23:31:00,59.4,29.5,29.96,SSW,210,0.0,0.0,32,0.00,,---,0.00,VWS V14.01,2013-08-06 05:31:00,
2013-08-05 23:36:00,59.2,30.9,29.96,West,264,0.0,0.0,34,0.00,,---,0.00,VWS V14.01,2013-08-06 05:36:00,
2013-08-05 23:41:00,58.8,30.5,29.96,West,264,0.0,0.0,34,0.00,,---,0.00,VWS V14.01,2013-08-06 05:41:00,
2013-08-05 23:46:00,59.0,30.7,29.96,SW,235,0.0,0.0,34,0.00,,---,0.00,VWS V14.01,2013-08-06 05:46:00,
2013-08-05 23:51:00,58.6,31.1,29.96,SW,235,0.0,0.0,35,0.00,,---,0.00,VWS V14.01,2013-08-06 05:51:00,
2013-08-05 23:56:00,58.3,30.8,29.96,SW,235,0.0,0.0,35,0.00,,---,0.00,VWS V14.01,2013-08-06 05:56:00,